Location: Usti nad Labem
(50.6670°N, 14.0330°E)
Time: 01:25:39
(UTC+02:00)

ISS - Pass Details

Date: 26 April 2025
Orbit: 416 x 420 km, 51.6° (Epoch: 16 May)

Event Time Altitude Azimuth Distance (km) Brightness Sun altitude
Exits shadow 04:31:47 18° 232° (SW) 1,089 -2.3 -11.2°
Maximum altitude 04:34:04 57° 157° (SSE) 494 -3.5 -10.9°
Drops below altitude 10° 04:37:22 10° 78° (ENE) 1,498 0.2 -10.5°
Sets 04:39:29 0° 75° (ENE) 2,364 1.5 -10.2°
